This is the latest recevied weather packets stored in our database for station/object SP8EBC-11. If no packets are shown the sender has not sent any weather packets the latest 1 day(s).
| Time | Temp. | Humidity | Pressure | Rain* | Wind** | Luminosity | Snow |
|---|---|---|---|---|---|---|---|
| 1777961111 | 14.44° C | 70% | 994.4 hPa | - | 1.79 m/s, 98° | - | - |
| 1777960991 | 14.44° C | 70% | 994.5 hPa | - | 1.79 m/s, 93° | - | - |
| 1777960871 | 14.44° C | 70% | 994.6 hPa | - | 2.24 m/s, 94° | - | - |
| 1777960751 | 14.44° C | 71% | 994.7 hPa | - | 2.24 m/s, 97° | - | - |
| 1777960631 | 13.89° C | 71% | 994.6 hPa | - | 2.68 m/s, 103° | - | - |
| 1777960511 | 13.89° C | 71% | 994.5 hPa | - | 3.13 m/s, 103° | - | - |
| 1777960391 | 13.89° C | 71% | 994.6 hPa | - | 3.13 m/s, 101° | - | - |
| 1777960270 | 13.89° C | 71% | 994.7 hPa | - | 2.68 m/s, 97° | - | - |
| 1777960150 | 13.89° C | 71% | 994.7 hPa | - | 3.13 m/s, 91° | - | - |
| 1777960030 | 13.89° C | 71% | 994.7 hPa | - | 3.58 m/s, 91° | - | - |
| 1777959910 | 13.89° C | 71% | 994.7 hPa | - | 3.13 m/s, 94° | - | - |
| 1777959790 | 13.89° C | 71% | 994.7 hPa | - | 3.13 m/s, 100° | - | - |
| 1777959670 | 13.89° C | 71% | 994.6 hPa | - | 3.13 m/s, 103° | - | - |
| 1777959550 | 13.89° C | 71% | 994.5 hPa | - | 3.13 m/s, 106° | - | - |
| 1777959430 | 13.89° C | 71% | 994.6 hPa | - | 2.68 m/s, 104° | - | - |
| 1777959310 | 13.89° C | 71% | 994.7 hPa | - | 2.68 m/s, 102° | - | - |
| 1777959190 | 13.89° C | 71% | 994.7 hPa | - | 3.13 m/s, 100° | - | - |
| 1777959070 | 13.89° C | 71% | 994.8 hPa | - | 2.68 m/s, 98° | - | - |
| 1777958950 | 13.89° C | 71% | 994.9 hPa | - | 2.68 m/s, 98° | - | - |
| 1777958830 | 13.89° C | 71% | 994.9 hPa | - | 2.68 m/s, 98° | - | - |
| 1777958710 | 13.89° C | 71% | 995 hPa | - | 2.24 m/s, 96° | - | - |
| 1777958590 | 13.33° C | 71% | 995.1 hPa | - | 1.79 m/s, 97° | - | - |
| 1777958470 | 13.33° C | 71% | 995.1 hPa | - | 1.79 m/s, 94° | - | - |
| 1777958349 | 13.33° C | 71% | 995.2 hPa | - | 1.34 m/s, 91° | - | - |
| 1777958229 | 13.33° C | 71% | 995.3 hPa | - | 1.34 m/s, 88° | - | - |
* Rain since midnight (hover to see other rain measurements)
** Current wind speed in m/s (hover to see current wind gust speed)